Location: *
(48.7358°N, 0.3111°E)
Time: 01:42:32
(UTC+00:00)

USA 234 - Pass Details

Date: 22 October 2019
Orbit: 1102 x 1106 km, 123.0° (Epoch: 12 November)

Event Time Altitude Azimuth Distance (km) Brightness Sun altitude
Rises 05:16:59 0° 157° (SSE) 3,907 6.5 -12.5°
Reaches altitude 10° 05:19:44 10° 167° (SSE) 2,953 5.7 -12.1°
Maximum altitude 05:25:32 34° 230° (SW) 1,738 4.0 -11.1°
Enters shadow 05:31:09 11° 292° (WNW) 2,894 4.9 -10.2°
